Starlink 2066

decayed
NORAD ID: 47673 Int'l Des: 2021-012 Owner: SPXS Country: US Constellation: starlink
LEOCIRCULAR
Group

About Starlink 2066

Description loading...

Altitude History

Altitude vs Time

uPlot chart will show altitude changes over time

Two-Line Element Set

1 47673U 21012BF 25044.24672050 .12681672 12363-4 70207-3 0 9995
2 47673 53.0387 316.9794 0004849 224.6657 276.6808 16.42151807221514
Epoch: Feb 13, 2025 • Age: 6386 hours

Current Status

Position data unavailable
Launch Date Feb 16, 2021
Age 4.7 years
Decay Date Feb 13, 2025
Type internet

Technical Details

Classification Payload
Mass 260.00 kg
Dry Mass 248.00 kg
Total Mass 260.00 kg
Length 0.20 m
Diameter 2.80 m
Span 9.00 m
Shape Box + pan
Manufacturer SPXS
Bus Type Starlink
Phase Status Unknown Transfer Status
Owner/State SPXS/US

Large Constellations

Loading constellations...